Hourly Data Report for January 02, 2019

TORONTO CITY
ONTARIO
Current Station Operator: ECCC - MSC

43°40'00.000" N
79°24'00.000" W
112.50 m
6158355
71508
XTO

Download Data

Hourly Data (January 2019)
Hourly Data Report for January 2, 2019
TIME
LST
Temp Definition
°C
Dew Point Definition
°C
Rel Hum Definition
%
Precip. Amount Definition
mm

Wind Dir Definition
10's deg

Wind Spd Definition
km/h
Visibility Definition
km
Stn Press Definition
kPa
Hmdx Definition


Wind Chill Definition


Weather Definition


00:00 -6.6 -10.6 73 0.0 LegendMM LegendMM   101.13     LegendNANA
01:00 -6.4 -10.4 73 0.0 LegendMM LegendMM   101.14     LegendNANA
02:00 -6.3 -10.4 72 0.0 LegendMM LegendMM   101.21     LegendNANA
03:00 -6.7 -10.8 73 0.0 LegendMM LegendMM   101.29     LegendNANA
04:00 -7.3 -10.8 76 0.0 LegendMM LegendMM   101.32     LegendNANA
05:00 -7.6 -11.0 77 0.0 LegendMM LegendMM   101.27     LegendNANA
06:00 -8.0 -11.2 77 0.0 LegendMM LegendMM   101.28     LegendNANA
07:00 -8.1 -11.5 76 0.0 LegendMM LegendMM   101.32     LegendNANA
08:00 -7.9 -11.2 77 0.0 LegendMM LegendMM   101.33     LegendNANA
09:00 -7.7 -11.3 75 0.0 LegendMM LegendMM   101.36     LegendNANA
10:00 -6.9 -11.0 73 0.0 LegendMM LegendMM   101.28     LegendNANA
11:00 -6.3 -12.1 63 0.0 LegendMM LegendMM   101.25     LegendNANA
12:00 -5.0 -10.4 66 0.0 LegendMM LegendMM   101.12     LegendNANA
13:00 -4.1 -8.3 73 0.0 LegendMM LegendMM   100.93     LegendNANA
14:00 -3.9 -7.6 76 0.0 LegendMM LegendMM   100.88     LegendNANA
15:00 -3.8 -6.2 83 0.0 LegendMM LegendMM   100.71     LegendNANA
16:00 -3.1 -5.4 84 0.0 LegendMM LegendMM   100.52     LegendNANA
17:00 -2.1 -5.4 78 0.0 LegendMM LegendMM   100.45     LegendNANA
18:00 -1.5 -4.3 81 0.0 LegendMM LegendMM   100.36     LegendNANA
19:00 -1.2 -3.2 86 0.2 LegendMM LegendMM   100.22     LegendNANA
20:00 -0.5 -2.7 85 0.2 LegendMM LegendMM   100.13     LegendNANA
21:00 -0.1 -2.3 85 0.0 LegendMM LegendMM   99.99     LegendNANA
22:00 0.1 -1.5 89 0.2 LegendMM LegendMM   99.84     LegendNANA
23:00 0.3 -1.0 91 0.7 LegendMM LegendMM   99.73     LegendNANA

Notes on Data Quality.

Legend

  • E = Estimated
  • M = Missing
  • NA = Not Available*
  • [empty] = Indicates an unobserved value
Date modified: